ROMMA est une association bénévole à but non lucratif. Votre soutien est indispensable : ADHERER à ROMMA ou FAIRE un DON

Briord - (01, Ain)

Bugey (281 m)   Longitude: 05° 29' 13" E   Latitude: 45° 46' 37" N Station partenaire n°15
 

Détail journalier du     <<     >>

Température Precipitation Humidité Pression Vent Dir Rafale Dir. rafale Ensol.
Heure (°C) (mm) (%) (hPa) (km/h) (km/h) (min)
01:00 1.308310348NO23NNO0
02:00 0.808510358ONO19O0
03:00 0.708410356ONO16ONO0
04:00 0.708310359ONO26O0
05:00 -0.708710346O21ONO0
06:00 -2.3087103405NO0
07:00 -3.4090103506SE0
08:00 -4.4090103502SE0
09:00 -4.6092103503SE0
10:00 -1.0088103600---35
11:00 1.2082103600---60
12:00 1.7079103500---60
13:00 3.1072103403SO60
14:00 4.80661034011O60
15:00 5.106510343ONO16ONO60
16:00 4.606410347ONO23ONO60
17:00 2.607110346ONO18ONO25
18:00 1.107510352ONO16NO0
19:00 -0.708110351---18NNO0
20:00 -2.5085103506SE0
21:00 -2.9087103506NE0
22:00 -3.3088103506NE0
23:00 -3.608810351---6SSE0
minuit -4.1087103403ESE0

Graphique du 03-01-2019

 

Serveur OMMA